Wind_Speed
76 70 72 73 68 65 62 64 57 53 53 51 44 43 46 43 41 38 41 41 41 38 38 43 44 41 40 39 38 38 37 37 39 34 32 32 32 35 38 39 40 42 43 44
76 75 77 75 68 66 62 60 61 57 56 54 54 52 48 41 45 45 47 39 44 45 42 45 49 46 47 45 44 41 38 38 41 40 40 38 33 33 38 41 42 42 42 44
80 81 78 76 76 76 70 68 64 61 58 57 53 49 48 50 50 55 51 49 49 53 53 58 57 52 51 50 47 45 45 43 43 43 44 43 42 44 44 43 44 45 46 47
82 79 81 79 77 72 75 77 75 72 62 58 57 55 59 59 63 56 61 59 59 55 59 62 54 54 55 53 51 53 52 50 49 49 50 50 47 49 49 49 47 48 49 52
86 83 84 83 82 83 75 69 69 65 62 64 62 61 65 66 62 65 62 67 67 62 58 61 57 57 56 55 54 54 54 56 54 54 54 54 54 55 54 55 53 52 53 53
96 90 89 86 83 80 80 79 77 71 67 66 67 63 61 65 71 72 73 72 67 63 62 61 60 62 60 62 60 58 57 57 58 58 59 60 59 59 59 60 62 61 61 61
103 98 98 95 90 84 84 86 82 81 77 70 73 70 62 72 80 81 76 70 68 66 68 66 66 64 67 67 65 62 61 61 60 61 62 63 64 64 64 65 66 67 67 66
102 98 96 95 92 90 90 91 89 84 83 83 82 78 79 79 79 80 78 72 70 72 71 71 72 71 71 72 69 67 65 65 66 67 68 68 69 70 70 71 71 74 75 74
97 95 94 94 96 97 97 97 97 95 94 91 86 84 81 80 76 80 79 79 79 74 75 77 77 75 76 75 73 72 71 70 71 73 73 74 74 74 76 77 78 80 81 81
105 106 101 102 103 102 99 96 97 96 92 89 88 83 81 83 81 77 77 81 82 81 83 81 80 81 81 79 77 76 75 75 76 77 77 79 79 80 81 83 84 85 85 87
100 103 104 102 101 100 99 98 98 96 94 93 88 86 84 85 84 81 81 80 83 86 86 85 85 87 87 86 83 81 81 81 83 81 82 82 84 85 85 86 88 89 91 92
103 104 103 101 102 103 102 102 100 99 94 92 87 82 81 83 84 85 83 80 81 84 87 88 88 90 91 91 90 88 86 88 87 87 85 85 86 86 88 90 91 93 96 95
105 104 102 100 99 97 96 95 96 94 95 91 93 87 91 92 90 89 87 89 90 90 90 92 94 94 95 93 92 92 91 90 89 88 87 88 90 91 93 94 96 97 95 96
110 108 107 104 103 104 105 103 104 105 106 98 98 97 97 96 95 93 92 93 94 93 92 91 89 89 89 90 91 91 91 91 91 93 94 95 95 95 95 95 96 97 99 100
112 108 108 109 110 111 110 110 110 109 106 106 97 100 100 100 102 100 97 95 94 96 94 93 93 94 94 95 95 96 96 97 98 99 99 99 99 99 100 101 103 105 107 109
115 115 115 114 114 113 111 110 109 108 108 106 103 101 102 105 105 103 103 101 100 101 102 102 102 104 105 105 106 106 105 104 103 104 105 105 105 106 109 110 111 114 116 119
112 114 114 115 116 117 117 109 111 113 113 111 109 104 108 108 107 106 106 106 106 104 105 105 104 103 103 105 105 106 108 109 110 111 113 112 113 114 117 118 119 120 123 126
115 113 112 114 112 115 105 104 106 108 110 112 107 106 106 106 108 109 107 106 106 107 108 108 111 112 111 111 110 109 113 115 115 116 117 118 119 119 122 123 122 121 121 111
127 127 126 127 125 122 117 115 115 117 116 116 113 114 114 113 115 117 117 118 118 117 116 117 115 115 117 118 118 119 119 117 120 120 123 124 122 120 119 120 116 110 104 103
118 122 125 128 129 128 123 123 121 122 124 125 130 129 126 124 125 126 126 123 120 120 118 116 117 119 120 121 118 119 120 120 117 117 118 117 113 112 111 109 103 107 108 109
107 107 110 114 118 116 112 115 119 122 112 120 123 121 121 122 123 122 120 118 119 120 119 117 112 105 102 102 102 104 107 108 108 108 109 110 108 105 108 110 113 114 116 118
100 101 102 103 104 98 95 108 112 115 116 115 117 119 117 114 109 106 104 103 103 104 102 100 99 100 103 105 103 103 106 107 110 110 109 108 109 113 115 116 116 121 127 129
106 105 104 106 103 101 94 98 101 101 101 102 102 102 102 101 102 103 103 104 104 105 106 107 106 106 110 113 111 109 108 107 109 111 113 116 119 122 124 124 126 126 129 130
108 105 105 104 103 105 102 104 106 106 105 106 107 105 105 106 107 108 110 112 113 113 114 114 115 115 115 119 119 117 114 115 117 118 120 123 125 127 129 130 130 131 131 132
112 111 107 109 107 109 111 112 112 112 112 110 110 111 114 116 116 116 114 116 119 119 117 115 116 117 118 120 119 121 122 123 123 125 127 129 131 132 133 133 133 134 135 134
118 118 121 120 120 117 116 116 115 115 115 116 116 116 116 116 116 118 118 119 118 118 120 121 123 125 127 129 130 133 132 133 134 133 134 135 135 133 132 129 126 124 122 121
Wind_Direction
236 235 239 239 240 244 246 250 250 251 254 258 254 260 269 273 273 282 294 294 286 288 292 300 306 305 310 313 313 313 311 306 311 323 320 319 312 309 308 308 307 307 307 307
236 238 237 240 243 243 243 244 247 250 257 257 261 262 260 267 269 278 284 288 288 290 285 293 298 299 305 304 308 306 305 302 300 305 317 316 313 315 314 308 304 302 300 301
233 236 239 243 246 248 248 248 248 254 256 256 256 255 261 264 270 274 282 285 285 286 283 288 290 293 297 300 304 302 304 300 297 297 302 311 311 312 314 310 306 304 304 302
234 237 242 244 246 249 250 251 253 255 256 254 250 259 266 269 273 271 280 284 286 281 288 286 284 287 291 296 294 295 297 295 297 297 298 298 303 304 308 307 305 305 306 305
233 235 239 242 243 245 250 249 253 251 249 249 249 257 264 267 265 273 279 284 289 285 284 281 279 284 285 289 287 288 291 292 293 294 292 293 295 297 298 302 301 301 303 301
237 240 240 242 244 245 249 250 252 248 247 248 253 256 260 263 268 273 277 282 283 281 282 278 278 281 281 284 282 282 285 286 287 288 290 290 289 290 291 296 301 298 298 302
241 243 243 245 246 245 248 249 246 246 246 246 255 258 256 264 271 274 275 279 282 279 281 276 276 279 278 282 280 282 283 284 284 282 281 281 282 284 286 289 291 292 294 297
240 240 240 243 244 244 245 247 250 248 251 255 256 258 260 259 265 269 276 277 276 277 275 273 271 275 277 280 278 278 280 279 279 279 279 280 281 282 282 284 286 287 289 291
235 235 237 239 240 243 248 248 250 254 257 259 260 260 259 260 261 266 272 277 276 271 271 273 271 273 275 278 276 276 277 278 278 279 280 279 279 280 280 281 282 284 287 289
236 237 237 239 242 246 249 250 253 256 255 254 259 256 256 259 261 264 266 270 270 271 272 270 269 272 272 274 274 276 276 276 276 277 278 278 279 279 279 278 279 282 284 286
234 237 235 237 240 244 245 247 250 250 252 257 255 257 257 259 262 263 262 262 265 268 269 269 272 275 276 276 274 274 274 275 274 275 276 277 277 278 280 281 282 283 285 286
237 237 240 242 243 244 247 250 250 253 257 256 256 257 260 261 261 262 261 261 260 262 265 268 270 270 271 273 275 276 276 277 276 277 278 279 280 280 281 281 282 283 285 288
235 237 238 240 245 250 251 251 252 253 253 254 255 256 257 258 257 258 259 261 262 261 260 262 264 268 271 273 274 276 277 279 280 281 281 281 280 281 282 283 284 286 287 288
236 238 239 240 241 242 243 244 246 248 250 254 256 257 259 259 258 258 259 261 262 262 262 262 263 264 266 269 272 275 276 276 276 277 278 280 282 284 285 285 286 287 289 289
237 238 240 242 243 245 247 248 250 251 253 255 255 258 259 259 259 260 260 261 261 262 263 264 265 265 267 268 270 271 273 275 276 277 277 278 279 281 283 285 286 286 287 287
238 240 241 243 245 246 247 249 252 254 256 256 256 256 258 259 260 262 262 262 263 263 264 265 268 269 270 271 272 272 273 274 274 274 274 274 275 277 278 280 282 282 283 284
239 240 243 245 246 247 248 250 252 253 255 256 258 259 260 263 265 265 265 265 265 266 267 269 271 271 272 272 273 272 273 273 274 275 275 275 276 277 277 278 280 280 282 282
241 242 244 247 248 248 249 250 253 254 256 258 258 258 259 261 263 264 265 267 269 270 270 270 272 273 272 272 272 272 274 275 275 274 275 276 277 278 279 281 282 282 282 280
243 245 248 249 251 251 251 253 255 257 258 259 260 260 261 261 263 265 267 269 270 272 271 271 272 273 273 272 272 273 274 274 274 274 274 275 277 278 278 280 280 279 278 278
248 247 250 251 252 252 251 254 255 256 256 259 259 258 260 262 264 266 267 268 269 269 270 270 270 273 274 273 274 274 274 273 275 274 274 274 275 276 277 277 276 275 276 278
249 251 252 252 253 254 255 257 258 258 259 258 260 261 262 263 264 265 267 266 265 267 268 269 269 270 271 272 273 274 274 274 275 275 275 275 274 273 273 275 274 275 275 276
249 253 253 255 256 256 257 257 257 259 260 260 262 263 264 265 266 267 268 268 267 267 267 266 266 266 268 272 273 272 272 272 274 274 274 274 272 273 273 272 276 276 275 275
246 247 249 252 256 257 257 260 259 260 261 262 261 262 263 262 264 267 267 270 271 272 273 273 273 273 273 273 272 272 272 270 270 272 272 271 271 272 272 273 273 274 275 276
250 252 254 255 256 257 259 257 258 259 260 263 262 262 264 265 267 268 269 270 272 273 273 273 274 274 274 276 275 274 273 273 274 273 274 274 274 274 275 276 276 277 279 279
255 256 258 259 260 260 260 260 258 259 262 263 264 264 264 265 266 267 267 268 269 271 272 272 272 270 271 273 274 275 275 275 276 276 277 278 278 279 279 279 279 280 280 281
260 261 262 264 264 264 264 264 264 265 265 267 268 269 269 268 269 270 272 273 273 273 274 275 277 277 278 279 279 280 279 279 280 279 280 280 281 279 280 280 281 282 282 282
Height
10725 10733 10740 10737 10747 10760 10766 10771 10773 10778 10783 10786 10791 10790 10796 10797 10793 10796 10796 10797 10798 10799 10798 10796 10796 10797 10798 10798 10796 10794 10792 10789 10785 10784 10781 10779 10777 10773 10770 10767 10765 10761 10758 10756
10714 10724 10721 10732 10742 10748 10755 10758 10762 10767 10773 10779 10782 10781 10786 10789 10787 10787 10789 10792 10791 10791 10794 10789 10789 10789 10789 10790 10792 10790 10789 10787 10783 10779 10776 10772 10770 10769 10766 10762 10759 10757 10754 10751
10700 10704 10713 10722 10729 10737 10743 10747 10751 10759 10764 10768 10773 10771 10773 10777 10778 10778 10779 10785 10785 10784 10784 10784 10781 10780 10780 10780 10780 10779 10779 10780 10778 10775 10772 10767 10762 10759 10758 10755 10752 10749 10747 10745
10688 10697 10704 10711 10717 10724 10729 10734 10739 10749 10756 10761 10762 10765 10761 10764 10765 10765 10770 10773 10775 10774 10775 10776 10775 10773 10771 10770 10769 10766 10765 10765 10766 10766 10764 10761 10757 10752 10750 10747 10745 10741 10738 10735
10676 10680 10687 10695 10700 10707 10715 10721 10730 10738 10744 10749 10752 10757 10746 10752 10751 10754 10758 10759 10760 10765 10766 10765 10765 10764 10762 10761 10760 10759 10756 10754 10752 10752 10751 10750 10746 10742 10737 10735 10733 10731 10730 10727
10665 10670 10676 10685 10689 10696 10704 10710 10718 10723 10730 10740 10739 10746 10744 10734 10738 10743 10743 10745 10748 10752 10754 10755 10754 10753 10751 10750 10749 10749 10748 10746 10743 10741 10739 10736 10733 10730 10726 10723 10722 10718 10716 10716
10655 10659 10665 10670 10674 10684 10691 10694 10699 10705 10715 10731 10728 10731 10741 10725 10723 10724 10729 10734 10737 10739 10741 10741 10741 10740 10738 10737 10738 10738 10738 10737 10735 10732 10728 10725 10721 10718 10714 10711 10708 10703 10701 10699
10637 10645 10650 10656 10659 10665 10668 10674 10685 10694 10703 10713 10717 10720 10722 10723 10713 10707 10713 10720 10724 10724 10725 10726 10726 10726 10724 10723 10724 10724 10724 10723 10720 10718 10716 10713 10710 10706 10701 10696 10692 10686 10683 10681
10617 10624 10630 10636 10642 10646 10658 10664 10666 10675 10686 10695 10704 10708 10704 10702 10711 10703 10702 10701 10702 10706 10709 10710 10709 10710 10710 10711 10711 10709 10709 10708 10706 10702 10700 10698 10694 10691 10686 10681 10676 10672 10667 10665
10600 10606 10614 10619 10622 10631 10642 10647 10651 10660 10669 10676 10686 10691 10689 10684 10689 10698 10696 10688 10685 10686 10687 10689 10692 10693 10694 10695 10694 10695 10695 10694 10691 10688 10684 10681 10678 10674 10669 10664 10660 10657 10653 10648
10581 10588 10595 10602 10612 10619 10624 10631 10634 10638 10649 10658 10668 10671 10670 10670 10674 10677 10679 10679 10674 10670 10671 10672 10671 10670 10671 10674 10675 10675 10676 10675 10673 10671 10668 10664 10661 10657 10653 10649 10644 10639 10634 10627
10567 10572 10580 10589 10594 10598 10608 10618 10620 10623 10636 10637 10645 10654 10656 10655 10654 10654 10655 10659 10665 10662 10659 10655 10653 10652 10653 10652 10652 10654 10653 10651 10652 10650 10648 10645 10641 10639 10634 10629 10624 10619 10613 10607
10547 10554 10564 10572 10582 10592 10599 10604 10603 10606 10607 10623 10623 10639 10634 10636 10634 10633 10635 10637 10639 10644 10647 10646 10643 10640 10637 10637 10637 10635 10636 10633 10631 10629 10626 10621 10617 10614 10611 10607 10602 10597 10593 10589
10525 10536 10547 10560 10566 10564 10567 10573 10576 10577 10585 10608 10610 10611 10614 10614 10613 10616 10618 10619 10622 10623 10626 10628 10628 10628 10627 10623 10620 10618 10617 10617 10613 10611 10608 10604 10598 10593 10588 10584 10579 10575 10569 10564
10508 10519 10528 10538 10543 10547 10554 10558 10560 10566 10577 10578 10600 10590 10590 10592 10589 10593 10596 10606 10608 10607 10607 10609 10608 10607 10609 10610 10608 10606 10603 10599 10596 10591 10586 10583 10580 10573 10568 10563 10559 10554 10548 10543
10493 10499 10506 10515 10522 10527 10534 10540 10548 10554 10560 10564 10569 10572 10568 10563 10566 10574 10578 10584 10584 10586 10586 10587 10589 10589 10587 10586 10585 10582 10579 10578 10576 10572 10567 10565 10561 10555 10549 10545 10540 10534 10528 10521
10471 10479 10485 10490 10497 10500 10508 10536 10532 10532 10537 10538 10547 10550 10548 10548 10545 10548 10551 10553 10557 10561 10563 10565 10566 10565 10563 10560 10559 10556 10552 10549 10546 10543 10539 10537 10535 10531 10525 10521 10515 10509 10505 10500
10450 10459 10461 10463 10470 10473 10511 10513 10508 10511 10513 10516 10527 10523 10524 10526 10522 10522 10524 10526 10530 10533 10536 10538 10540 10539 10538 10536 10534 10531 10526 10523 10518 10513 10512 10506 10503 10498 10491 10487 10482 10476 10472 10466
10430 10433 10437 10438 10445 10461 10479 10490 10490 10485 10492 10493 10502 10496 10497 10499 10499 10500 10501 10503 10506 10507 10508 10508 10507 10506 10504 10503 10503 10500 10493 10490 10485 10484 10479 10473 10469 10467 10463 10458 10452 10445 10442 10438
10405 10413 10412 10415 10419 10434 10462 10457 10459 10456 10462 10468 10462 10467 10471 10473 10473 10473 10475 10477 10479 10479 10478 10478 10478 10477 10474 10470 10470 10468 10462 10457 10454 10451 10447 10441 10437 10435 10431 10426 10422 10417 10413 10409
10377 10381 10383 10386 10388 10408 10432 10426 10421 10419 10449 10432 10430 10437 10440 10443 10445 10446 10446 10447 10449 10450 10450 10451 10449 10445 10440 10439 10439 10435 10430 10425 10423 10420 10415 10411 10406 10404 10400 10398 10391 10387 10382 10379
10357 10355 10363 10362 10362 10386 10409 10389 10389 10392 10397 10407 10409 10408 10411 10415 10415 10414 10415 10416 10417 10417 10417 10418 10420 10417 10412 10410 10412 10408 10401 10396 10394 10391 10387 10383 10378 10374 10370 10367 10362 10356 10350 10345
10332 10334 10337 10341 10350 10363 10374 10366 10364 10367 10370 10373 10378 10381 10383 10386 10389 10392 10392 10389 10386 10385 10386 10384 10385 10385 10381 10377 10376 10375 10368 10364 10362 10357 10355 10350 10346 10340 10336 10334 10329 10324 10319 10312
10307 10316 10316 10323 10335 10337 10341 10339 10336 10338 10341 10344 10349 10354 10356 10359 10363 10365 10362 10360 10357 10357 10356 10355 10354 10352 10350 10342 10340 10337 10336 10330 10327 10324 10320 10316 10312 10308 10302 10298 10294 10289 10283 10276
10284 10289 10299 10297 10303 10303 10302 10302 10304 10309 10313 10318 10323 10325 10326 10327 10332 10331 10335 10333 10328 10325 10322 10321 10320 10320 10317 10311 10308 10299 10297 10294 10292 10289 10284 10279 10275 10271 10266 10261 10257 10251 10243 10238
10266 10267 10263 10265 10266 10266 10268 10266 10274 10277 10279 10282 10287 10289 10290 10291 10295 10293 10297 10298 10298 10297 10291 10286 10282 10280 10278 10273 10270 10263 10258 10258 10254 10251 10247 10241 10237 10234 10229 10226 10221 10216 10211 10203